Voltar ao catálogo

QIANFAN-133

AtivoComunicaçõesPO
NORAD 69079·PAYLOAD·🇨🇳 China

Lançado May 12, 2026 de Taiyuan Satellite Launch Center

Loading…

Próximas Passagens (próximas 24 horas)

TLE

AtualizadoSource: Space-Track

Época: Sep 14, 2026, 14:52 UTC

1 69079U 26104G   26257.61970856  .00000122  00000-0  17069-3 0  9999
2 69079  88.9911 332.3452 0001915 112.6757 247.4597 13.51030203 17224

Acompanhe QIANFAN-133 em tempo real com AllMySat

Download on the App Store